Time,TemperatureF,DewpointF,PressureIn,WindDirection,WindDirectionDegrees,WindSpeedMPH,WindSpeedGustMPH,Humidity,HourlyPrecipIn,Conditions,Clouds,dailyrainin,SoftwareType,DateUTC
2013-08-05 00:00:00,64.0,59.1,29.98,SE,133,6.0,9.0,84,0.00,,BKN060,0.00,VWS V14.01,2013-08-05 05:00:00,
2013-08-05 00:01:00,64.0,59.1,29.98,ESE,111,4.0,6.0,84,0.00,,CLR,0.00,VWS V14.01,2013-08-05 05:01:00,
2013-08-05 00:06:00,63.9,59.0,29.98,ESE,121,5.0,7.0,84,0.00,,CLR,0.00,VWS V14.01,2013-08-05 05:06:00,
2013-08-05 00:11:00,63.7,59.1,29.97,SE,134,5.0,7.0,85,0.00,,CLR,0.00,VWS V14.01,2013-08-05 05:11:00,
2013-08-05 00:16:00,63.7,59.1,29.97,SE,127,4.0,8.0,85,0.00,,CLR,0.00,VWS V14.01,2013-08-05 05:16:00,
2013-08-05 00:21:00,63.7,59.1,29.97,SSE,152,6.0,8.0,85,0.00,,CLR,0.00,VWS V14.01,2013-08-05 05:21:00,
2013-08-05 00:26:00,63.7,58.8,29.97,SSE,155,6.0,8.0,84,0.00,,CLR,0.00,VWS V14.01,2013-08-05 05:26:00,
2013-08-05 00:30:00,63.7,58.8,29.97,SSE,149,6.0,9.0,84,0.00,,BKN060,0.00,VWS V14.01,2013-08-05 05:30:00,
2013-08-05 00:31:00,63.7,58.8,29.97,SE,138,5.0,8.0,84,0.00,,CLR,0.00,VWS V14.01,2013-08-05 05:31:00,
2013-08-05 00:36:00,63.7,58.8,29.97,SE,142,4.0,8.0,84,0.00,,CLR,0.00,VWS V14.01,2013-08-05 05:36:00,
2013-08-05 00:42:00,63.6,58.7,29.97,SE,136,5.0,8.0,84,0.00,,CLR,0.00,VWS V14.01,2013-08-05 05:42:00,
2013-08-05 00:47:00,63.5,58.9,29.97,SE,134,3.0,8.0,85,0.00,,CLR,0.00,VWS V14.01,2013-08-05 05:47:00,
2013-08-05 00:52:00,63.3,58.7,29.97,ESE,118,4.0,8.0,85,0.00,,CLR,0.00,VWS V14.01,2013-08-05 05:52:00,
2013-08-05 00:57:00,63.2,59.0,29.96,ESE,121,4.0,8.0,86,0.00,,SCT085,0.00,VWS V14.01,2013-08-05 05:57:00,
2013-08-05 01:00:00,63.1,58.8,29.96,SE,136,4.0,8.0,86,0.00,,BKN060,0.00,VWS V14.01,2013-08-05 06:00:00,
2013-08-05 01:01:00,63.1,58.8,29.96,ESE,122,4.0,6.0,86,0.00,,SCT085,0.00,VWS V14.01,2013-08-05 06:01:00,
2013-08-05 01:07:00,62.9,59.0,29.97,SE,126,6.0,6.0,87,0.00,,SCT085,0.00,VWS V14.01,2013-08-05 06:07:00,
2013-08-05 01:12:00,62.7,58.8,29.96,ESE,122,3.0,6.0,87,0.00,,SCT085,0.00,VWS V14.01,2013-08-05 06:12:00,
2013-08-05 01:16:00,62.6,59.0,29.96,ESE,120,5.0,6.0,88,0.00,,SCT085,0.00,VWS V14.01,2013-08-05 06:16:00,
2013-08-05 01:21:00,62.6,59.0,29.96,SE,136,3.0,6.0,88,0.00,,SCT085,0.00,VWS V14.01,2013-08-05 06:21:00,
2013-08-05 01:27:00,62.6,59.0,29.95,ESE,114,5.0,6.0,88,0.00,,SCT085,0.00,VWS V14.01,2013-08-05 06:27:00,
2013-08-05 01:30:00,62.6,59.0,29.95,ESE,121,4.0,6.0,88,0.00,,BKN060,0.00,VWS V14.01,2013-08-05 06:30:00,
2013-08-05 01:31:00,62.6,59.0,29.95,ESE,120,5.0,6.0,88,0.00,,SCT085,0.00,VWS V14.01,2013-08-05 06:31:00,
2013-08-05 01:37:00,62.6,59.0,29.95,SE,136,3.0,6.0,88,0.00,,SCT085,0.00,VWS V14.01,2013-08-05 06:37:00,
2013-08-05 01:42:00,62.6,59.0,29.95,SSE,158,5.0,6.0,88,0.00,,SCT085,0.00,VWS V14.01,2013-08-05 06:42:00,
2013-08-05 01:47:00,62.7,59.1,29.95,SSE,156,3.0,6.0,88,0.00,,SCT085,0.00,VWS V14.01,2013-08-05 06:47:00,
2013-08-05 01:52:00,62.9,59.0,29.95,ESE,118,3.0,6.0,87,0.00,,SCT085,0.00,VWS V14.01,2013-08-05 06:52:00,
2013-08-05 01:57:00,63.0,59.1,29.94,East,98,3.0,6.0,87,0.00,,OVC046,0.00,VWS V14.01,2013-08-05 06:57:00,
2013-08-05 02:00:00,63.0,59.1,29.94,ESE,118,2.0,6.0,87,0.00,,BKN060,0.00,VWS V14.01,2013-08-05 07:00:00,
2013-08-05 02:01:00,63.0,59.1,29.94,SE,127,3.0,4.0,87,0.00,,OVC046,0.00,VWS V14.01,2013-08-05 07:01:00,
2013-08-05 02:07:00,63.0,59.4,29.94,ESE,119,4.0,5.0,88,0.00,,OVC046,0.00,VWS V14.01,2013-08-05 07:07:00,
2013-08-05 02:12:00,63.0,59.1,29.93,ESE,114,5.0,6.0,87,0.00,,OVC046,0.00,VWS V14.01,2013-08-05 07:12:00,
2013-08-05 02:17:00,63.1,58.8,29.93,ESE,117,4.0,9.0,86,0.00,,OVC046,0.00,VWS V14.01,2013-08-05 07:17:00,
2013-08-05 02:22:00,63.1,58.8,29.93,ESE,118,5.0,9.0,86,0.00,,OVC046,0.00,VWS V14.01,2013-08-05 07:22:00,
2013-08-05 02:27:00,63.1,58.8,29.92,SE,134,5.0,9.0,86,0.00,,OVC046,0.00,VWS V14.01,2013-08-05 07:27:00,
2013-08-05 02:30:00,63.0,59.1,29.91,ESE,111,8.0,9.0,87,0.00,,BKN060,0.00,VWS V14.01,2013-08-05 07:30:00,
2013-08-05 02:32:00,62.9,59.0,29.91,ESE,115,8.0,9.0,87,0.00,,OVC046,0.00,VWS V14.01,2013-08-05 07:32:00,
2013-08-05 02:37:00,62.7,58.8,29.91,ESE,115,6.0,9.0,87,0.00,,OVC046,0.00,VWS V14.01,2013-08-05 07:37:00,
2013-08-05 02:41:00,62.7,58.8,29.91,SE,145,5.0,9.0,87,0.00,,OVC046,0.00,VWS V14.01,2013-08-05 07:41:00,
2013-08-05 02:47:00,62.9,59.0,29.90,SE,146,9.0,10.0,87,0.00,,OVC046,0.00,VWS V14.01,2013-08-05 07:47:00,
2013-08-05 02:52:00,62.8,58.9,29.89,SE,136,8.0,11.0,87,0.00,,OVC046,0.00,VWS V14.01,2013-08-05 07:52:00,
2013-08-05 02:57:00,62.8,58.9,29.89,SE,134,6.0,11.0,87,0.00,,OVC100,0.00,VWS V14.01,2013-08-05 07:57:00,
2013-08-05 03:00:00,62.8,58.9,29.89,SE,128,9.0,11.0,87,0.00,,BKN060,0.00,VWS V14.01,2013-08-05 08:00:00,
2013-08-05 03:02:00,62.8,58.9,29.88,ESE,113,6.0,9.0,87,0.00,,OVC100,0.00,VWS V14.01,2013-08-05 08:02:00,
2013-08-05 03:07:00,62.6,59.0,29.89,ESE,103,5.0,9.0,88,0.00,,OVC100,0.00,VWS V14.01,2013-08-05 08:07:00,
2013-08-05 03:12:00,62.7,59.1,29.88,ESE,123,8.0,11.0,88,0.00,,OVC100,0.00,VWS V14.01,2013-08-05 08:12:00,
2013-08-05 03:17:00,62.8,58.9,29.88,SE,130,8.0,13.0,87,0.00,,OVC100,0.00,VWS V14.01,2013-08-05 08:17:00,
2013-08-05 03:22:00,63.0,59.1,29.87,ESE,121,11.0,13.0,87,0.00,,OVC100,0.00,VWS V14.01,2013-08-05 08:22:00,
2013-08-05 03:27:00,63.0,59.1,29.87,SE,134,7.0,13.0,87,0.00,,OVC100,0.00,VWS V14.01,2013-08-05 08:27:00,
2013-08-05 03:30:00,63.0,59.1,29.88,SE,136,3.0,13.0,87,0.00,,BKN060,0.00,VWS V14.01,2013-08-05 08:30:00,
2013-08-05 03:32:00,62.9,59.0,29.90,SSE,152,1.0,3.0,87,0.00,,OVC090,0.00,VWS V14.01,2013-08-05 08:32:00,
2013-08-05 03:37:00,63.0,59.1,29.94,NW,309,1.0,3.0,87,0.00,,OVC090,0.00,VWS V14.01,2013-08-05 08:37:00,
2013-08-05 03:42:00,63.3,60.3,29.99,NW,317,3.0,4.0,90,0.09,,OVC090,0.09,VWS V14.01,2013-08-05 08:42:00,
2013-08-05 03:47:00,62.9,60.2,29.97,NNE,18,6.0,19.0,91,0.46,,OVC090,0.46,VWS V14.01,2013-08-05 08:47:00,
2013-08-05 03:52:00,62.3,60.0,29.96,WNW,284,1.0,19.0,92,0.52,,OVC049,0.52,VWS V14.01,2013-08-05 08:52:00,
2013-08-05 03:57:00,62.2,60.2,29.96,NW,305,0.0,19.0,93,0.54,,OVC049,0.54,VWS V14.01,2013-08-05 08:57:00,
2013-08-05 04:00:00,62.1,60.4,29.95,NNE,20,0.0,19.0,94,0.55,,BKN060,0.55,VWS V14.01,2013-08-05 09:00:00,
2013-08-05 04:02:00,62.0,60.3,29.95,NNE,16,0.0,3.0,94,0.56,,,0.56,VWS V14.01,2013-08-05 09:02:00,
2013-08-05 04:07:00,61.8,60.1,29.94,NNE,31,0.0,3.0,94,0.57,,,0.57,VWS V14.01,2013-08-05 09:07:00,
2013-08-05 04:12:00,61.5,60.1,29.94,ESE,121,1.0,3.0,95,0.57,,,0.57,VWS V14.01,2013-08-05 09:12:00,
2013-08-05 04:17:00,61.5,60.3,29.93,ESE,111,6.0,6.0,96,0.57,,,0.57,VWS V14.01,2013-08-05 09:17:00,
2013-08-05 04:22:00,61.7,60.5,29.93,SE,134,6.0,7.0,96,0.57,,,0.57,VWS V14.01,2013-08-05 09:22:00,
2013-08-05 04:27:00,61.7,60.3,29.92,East,96,6.0,8.0,95,0.57,,-RA,0.57,VWS V14.01,2013-08-05 09:27:00,
2013-08-05 04:30:00,61.6,60.5,29.92,East,100,5.0,8.0,96,0.57,,BKN060,0.57,VWS V14.01,2013-08-05 09:30:00,
2013-08-05 04:32:00,61.6,60.5,29.92,ESE,119,5.0,6.0,96,0.57,,-RA,0.57,VWS V14.01,2013-08-05 09:32:00,
2013-08-05 04:37:00,61.6,60.5,29.91,ESE,106,5.0,7.0,96,0.57,,-RA,0.57,VWS V14.01,2013-08-05 09:37:00,
2013-08-05 04:42:00,61.5,60.3,29.91,East,101,6.0,8.0,96,0.57,,-RA,0.57,VWS V14.01,2013-08-05 09:42:00,
2013-08-05 04:47:00,61.5,60.3,29.90,ESE,111,8.0,9.0,96,0.57,,-RA,0.57,VWS V14.01,2013-08-05 09:47:00,
2013-08-05 04:52:00,61.5,60.3,29.90,East,101,8.0,9.0,96,0.57,,-RA,0.57,VWS V14.01,2013-08-05 09:52:00,
2013-08-05 04:57:00,61.4,60.2,29.90,ESE,103,5.0,9.0,96,0.57,,-RA,0.57,VWS V14.01,2013-08-05 09:57:00,
2013-08-05 05:00:00,61.4,60.2,29.90,East,98,0.0,9.0,96,0.57,,BKN060,0.57,VWS V14.01,2013-08-05 10:00:00,
2013-08-05 05:02:00,61.4,60.2,29.90,ESE,111,2.0,5.0,96,0.02,,OVC037,0.57,VWS V14.01,2013-08-05 10:02:00,
2013-08-05 05:08:00,61.4,60.2,29.90,ESE,113,4.0,5.0,96,0.02,,OVC037,0.57,VWS V14.01,2013-08-05 10:08:00,
2013-08-05 05:13:00,61.5,60.3,29.89,ESE,103,6.0,8.0,96,0.02,,OVC037,0.57,VWS V14.01,2013-08-05 10:13:00,
2013-08-05 05:17:00,61.7,60.5,29.89,ESE,107,5.0,8.0,96,0.02,,OVC037,0.57,VWS V14.01,2013-08-05 10:17:00,
2013-08-05 05:23:00,61.7,60.5,29.89,ESE,102,6.0,8.0,96,0.02,,OVC037,0.57,VWS V14.01,2013-08-05 10:23:00,
2013-08-05 05:28:00,61.7,60.5,29.89,ESE,120,4.0,8.0,96,0.02,,OVC037,0.57,VWS V14.01,2013-08-05 10:28:00,
2013-08-05 05:30:00,61.7,60.5,29.89,SE,126,5.0,8.0,96,0.02,,BKN060,0.57,VWS V14.01,2013-08-05 10:30:00,
2013-08-05 05:33:00,61.7,60.5,29.89,SE,134,5.0,6.0,96,0.00,,OVC037,0.57,VWS V14.01,2013-08-05 10:33:00,
2013-08-05 05:38:00,61.7,60.5,29.88,ESE,120,6.0,8.0,96,0.00,,OVC037,0.57,VWS V14.01,2013-08-05 10:38:00,
2013-08-05 05:43:00,61.7,60.5,29.88,SE,131,5.0,8.0,96,0.00,,OVC034,0.57,VWS V14.01,2013-08-05 10:43:00,
2013-08-05 05:49:00,61.7,60.5,29.89,SSE,163,2.0,8.0,96,0.00,,OVC034,0.57,VWS V14.01,2013-08-05 10:49:00,
2013-08-05 05:53:00,61.7,60.8,29.92,North,359,6.0,8.0,97,0.00,,OVC025,0.57,VWS V14.01,2013-08-05 10:53:00,
2013-08-05 05:59:00,61.8,60.9,29.94,NNE,30,3.0,13.0,97,0.00,,,0.57,VWS V14.01,2013-08-05 10:59:00,
2013-08-05 06:00:00,61.8,60.9,29.93,SE,127,3.0,13.0,97,0.06,,BKN060,0.63,VWS V14.01,2013-08-05 11:00:00,
2013-08-05 06:04:00,61.5,60.3,29.90,ESE,113,12.0,14.0,96,0.14,,,0.71,VWS V14.01,2013-08-05 11:04:00,
2013-08-05 06:09:00,61.4,60.2,29.93,South,181,0.0,14.0,96,0.15,,,0.72,VWS V14.01,2013-08-05 11:09:00,
2013-08-05 06:14:00,61.3,59.9,29.91,ENE,76,2.0,14.0,95,0.15,,RA,0.72,VWS V14.01,2013-08-05 11:14:00,
2013-08-05 06:18:00,61.1,59.7,29.91,East,96,2.0,14.0,95,0.16,,RA,0.73,VWS V14.01,2013-08-05 11:18:00,
2013-08-05 06:24:00,61.1,59.7,29.90,ESE,106,9.0,14.0,95,0.16,,-RA,0.73,VWS V14.01,2013-08-05 11:24:00,
2013-08-05 06:29:00,61.3,59.9,29.90,ESE,108,7.0,14.0,95,0.16,,-RA,0.73,VWS V14.01,2013-08-05 11:29:00,
2013-08-05 06:30:00,61.3,59.6,29.90,East,98,6.0,14.0,94,0.16,,BKN060,0.73,VWS V14.01,2013-08-05 11:30:00,
2013-08-05 06:33:00,61.4,60.0,29.90,ESE,107,5.0,7.0,95,0.16,,OVC028,0.73,VWS V14.01,2013-08-05 11:33:00,
2013-08-05 06:38:00,61.6,60.2,29.90,ESE,113,6.0,7.0,95,0.16,,OVC028,0.73,VWS V14.01,2013-08-05 11:38:00,
2013-08-05 06:44:00,61.6,60.2,29.90,ESE,110,7.0,8.0,95,0.16,,OVC028,0.73,VWS V14.01,2013-08-05 11:44:00,
2013-08-05 06:49:00,61.6,59.9,29.90,East,101,5.0,8.0,94,0.16,,OVC028,0.73,VWS V14.01,2013-08-05 11:49:00,
2013-08-05 06:54:00,61.4,59.7,29.90,ESE,116,7.0,9.0,94,0.16,,OVC028,0.73,VWS V14.01,2013-08-05 11:54:00,
2013-08-05 06:59:00,61.4,60.0,29.89,ESE,105,6.0,10.0,95,0.16,,OVC028,0.73,VWS V14.01,2013-08-05 11:59:00,
2013-08-05 07:00:00,61.4,60.0,29.89,ESE,111,6.0,10.0,95,0.16,,BKN060,0.73,VWS V14.01,2013-08-05 12:00:00,
2013-08-05 07:04:00,61.4,60.0,29.89,ESE,113,6.0,10.0,95,0.10,,OVC020,0.73,VWS V14.01,2013-08-05 12:04:00,
2013-08-05 07:09:00,61.5,60.1,29.89,ESE,116,6.0,10.0,95,0.10,,OVC020,0.73,VWS V14.01,2013-08-05 12:09:00,
2013-08-05 07:14:00,61.5,60.1,29.89,SE,136,5.0,10.0,95,0.10,,OVC020,0.73,VWS V14.01,2013-08-05 12:14:00,
2013-08-05 07:19:00,61.6,60.2,29.89,ESE,108,5.0,10.0,95,0.10,,OVC020,0.73,VWS V14.01,2013-08-05 12:19:00,
2013-08-05 07:24:00,61.6,60.2,29.89,ESE,111,5.0,10.0,95,0.10,,OVC020,0.73,VWS V14.01,2013-08-05 12:24:00,
2013-08-05 07:30:00,61.6,60.2,29.89,SE,131,4.0,10.0,95,0.10,,OVC020,0.73,VWS V14.01,2013-08-05 12:30:00,
2013-08-05 07:35:00,61.7,60.3,29.89,SE,127,6.0,8.0,95,0.00,,OVC020,0.73,VWS V14.01,2013-08-05 12:35:00,
2013-08-05 07:39:00,61.6,60.2,29.89,SE,129,6.0,10.0,95,0.00,,OVC020,0.73,VWS V14.01,2013-08-05 12:39:00,
2013-08-05 07:45:00,61.7,60.3,29.88,SE,132,9.0,10.0,95,0.00,,OVC020,0.73,VWS V14.01,2013-08-05 12:45:00,
2013-08-05 07:50:00,61.6,60.5,29.88,SE,126,7.0,11.0,96,0.00,,OVC020,0.73,VWS V14.01,2013-08-05 12:50:00,
2013-08-05 07:55:00,61.6,60.2,29.88,SE,143,5.0,11.0,95,0.00,,OVC020,0.73,VWS V14.01,2013-08-05 12:55:00,
2013-08-05 08:00:00,61.7,60.5,29.88,SSE,148,4.0,11.0,96,0.00,,OVC016,0.73,VWS V14.01,2013-08-05 13:00:00,
2013-08-05 08:05:00,61.7,60.3,29.88,SE,124,7.0,8.0,95,0.00,,OVC016,0.73,VWS V14.01,2013-08-05 13:05:00,
2013-08-05 08:10:00,61.7,60.3,29.88,SE,133,5.0,9.0,95,0.00,,OVC016,0.73,VWS V14.01,2013-08-05 13:10:00,
2013-08-05 08:15:00,61.6,60.2,29.88,SE,130,5.0,10.0,95,0.00,,OVC016,0.73,VWS V14.01,2013-08-05 13:15:00,
2013-08-05 08:20:00,61.7,60.3,29.88,SE,127,5.0,10.0,95,0.00,,OVC016,0.73,VWS V14.01,2013-08-05 13:20:00,
2013-08-05 08:25:00,61.8,60.7,29.88,SE,134,5.0,10.0,96,0.00,,OVC016,0.73,VWS V14.01,2013-08-05 13:25:00,
2013-08-05 08:30:00,61.8,60.7,29.87,SE,129,7.0,10.0,96,0.00,,OVC016,0.73,VWS V14.01,2013-08-05 13:30:00,
2013-08-05 08:35:00,61.9,60.8,29.88,ESE,123,6.0,10.0,96,0.00,,OVC014,0.73,VWS V14.01,2013-08-05 13:35:00,
2013-08-05 08:40:00,62.1,61.0,29.88,SE,126,7.0,10.0,96,0.00,,OVC014,0.73,VWS V14.01,2013-08-05 13:40:00,
2013-08-05 08:45:00,62.2,61.0,29.88,SSE,149,6.0,10.0,96,0.00,,OVC014,0.73,VWS V14.01,2013-08-05 13:45:00,
2013-08-05 08:50:00,62.2,60.8,29.88,East,98,7.0,10.0,95,0.00,,OVC014,0.73,VWS V14.01,2013-08-05 13:50:00,
2013-08-05 08:56:00,62.3,60.8,29.88,SE,135,7.0,10.0,95,0.00,,OVC014,0.73,VWS V14.01,2013-08-05 13:56:00,
2013-08-05 09:00:00,62.4,61.0,29.88,ESE,121,7.0,10.0,95,0.00,,BKN060,0.73,VWS V14.01,2013-08-05 14:00:00,
2013-08-05 09:01:00,62.4,61.0,29.88,ESE,120,6.0,9.0,95,0.00,,OVC014,0.73,VWS V14.01,2013-08-05 14:01:00,
2013-08-05 09:07:00,62.5,61.0,29.88,SE,130,7.0,9.0,95,0.00,,OVC014,0.73,VWS V14.01,2013-08-05 14:07:00,
2013-08-05 09:12:00,62.6,61.2,29.88,SSE,153,7.0,9.0,95,0.00,,OVC014,0.73,VWS V14.01,2013-08-05 14:12:00,
2013-08-05 09:17:00,62.6,61.2,29.87,SE,146,7.0,11.0,95,0.00,,OVC014,0.73,VWS V14.01,2013-08-05 14:17:00,
2013-08-05 09:22:00,62.6,61.2,29.87,SSE,148,6.0,11.0,95,0.00,,OVC014,0.73,VWS V14.01,2013-08-05 14:22:00,
2013-08-05 09:28:00,62.7,61.2,29.87,SE,126,5.0,11.0,95,0.02,,OVC014,0.75,VWS V14.01,2013-08-05 14:28:00,
2013-08-05 09:30:00,62.7,61.2,29.87,SE,135,4.0,11.0,95,0.02,,BKN060,0.75,VWS V14.01,2013-08-05 14:30:00,
2013-08-05 09:33:00,62.7,61.5,29.87,SSE,151,7.0,7.0,96,0.02,,OVC014,0.75,VWS V14.01,2013-08-05 14:33:00,
2013-08-05 09:37:00,62.9,61.8,29.87,SE,136,7.0,8.0,96,0.02,,OVC014,0.75,VWS V14.01,2013-08-05 14:37:00,
2013-08-05 09:43:00,63.2,62.0,29.87,SSE,153,6.0,9.0,96,0.02,,OVC014,0.75,VWS V14.01,2013-08-05 14:43:00,
2013-08-05 09:48:00,63.3,62.1,29.87,SSE,158,7.0,9.0,96,0.02,,OVC014,0.75,VWS V14.01,2013-08-05 14:48:00,
2013-08-05 09:53:00,63.6,62.4,29.86,SE,145,5.0,9.0,96,0.02,,OVC014,0.75,VWS V14.01,2013-08-05 14:53:00,
2013-08-05 09:58:00,63.9,62.7,29.86,SSE,149,7.0,9.0,96,0.02,,OVC014,0.75,VWS V14.01,2013-08-05 14:58:00,
2013-08-05 10:03:00,64.1,62.9,29.86,SSE,161,9.0,10.0,96,0.02,,OVC012,0.75,VWS V14.01,2013-08-05 15:03:00,
2013-08-05 10:08:00,64.2,63.0,29.86,SE,135,6.0,10.0,96,0.02,,OVC012,0.75,VWS V14.01,2013-08-05 15:08:00,
2013-08-05 10:13:00,64.5,63.3,29.86,SE,128,6.0,10.0,96,0.02,,OVC012,0.75,VWS V14.01,2013-08-05 15:13:00,
2013-08-05 10:18:00,64.7,63.5,29.85,SE,138,5.0,10.0,96,0.02,,OVC012,0.75,VWS V14.01,2013-08-05 15:18:00,
2013-08-05 10:24:00,64.9,63.7,29.86,SE,126,8.0,10.0,96,0.02,,OVC012,0.75,VWS V14.01,2013-08-05 15:24:00,
2013-08-05 10:29:00,65.0,63.8,29.86,SE,137,3.0,10.0,96,0.02,,OVC012,0.75,VWS V14.01,2013-08-05 15:29:00,
2013-08-05 10:30:00,65.1,63.9,29.86,SSW,200,2.0,10.0,96,0.02,,BKN060,0.75,VWS V14.01,2013-08-05 15:30:00,
2013-08-05 10:34:00,65.2,64.0,29.86,SSW,210,3.0,6.0,96,0.00,,OVC012,0.75,VWS V14.01,2013-08-05 15:34:00,
2013-08-05 10:39:00,65.4,64.2,29.86,SE,143,4.0,6.0,96,0.00,,OVC012,0.75,VWS V14.01,2013-08-05 15:39:00,
2013-08-05 10:44:00,65.6,64.4,29.86,SSE,153,4.0,6.0,96,0.00,,OVC012,0.75,VWS V14.01,2013-08-05 15:44:00,
2013-08-05 10:49:00,65.9,64.4,29.86,SSE,149,5.0,7.0,95,0.00,,OVC007,0.75,VWS V14.01,2013-08-05 15:49:00,
2013-08-05 10:54:00,66.3,64.8,29.86,SSW,196,3.0,8.0,95,0.00,,OVC007,0.75,VWS V14.01,2013-08-05 15:54:00,
2013-08-05 10:59:00,66.4,64.9,29.85,SSW,205,6.0,8.0,95,0.00,,OVC007,0.75,VWS V14.01,2013-08-05 15:59:00,
2013-08-05 11:05:00,66.6,65.1,29.85,SSW,211,3.0,7.0,95,0.00,,OVC009,0.75,VWS V14.01,2013-08-05 16:05:00,
2013-08-05 11:09:00,66.9,65.4,29.85,SW,217,5.0,9.0,95,0.00,,OVC009,0.75,VWS V14.01,2013-08-05 16:09:00,
2013-08-05 11:14:00,67.1,65.6,29.84,South,187,5.0,9.0,95,0.00,,OVC009,0.75,VWS V14.01,2013-08-05 16:14:00,
2013-08-05 11:20:00,67.3,65.8,29.84,SSE,153,3.0,9.0,95,0.00,,OVC009,0.75,VWS V14.01,2013-08-05 16:20:00,
2013-08-05 11:25:00,67.6,66.1,29.84,SSW,212,3.0,9.0,95,0.00,,OVC009,0.75,VWS V14.01,2013-08-05 16:25:00,
2013-08-05 11:30:00,68.0,66.5,29.84,SSW,194,3.0,9.0,95,0.00,,OVC011,0.75,VWS V14.01,2013-08-05 16:30:00,
2013-08-05 11:35:00,68.4,66.6,29.84,SSW,201,2.0,6.0,94,0.00,,OVC011,0.75,VWS V14.01,2013-08-05 16:35:00,
2013-08-05 11:41:00,68.8,67.0,29.84,SSE,162,3.0,8.0,94,0.00,,OVC011,0.75,VWS V14.01,2013-08-05 16:41:00,
2013-08-05 11:45:00,69.2,67.1,29.83,SW,215,3.0,8.0,93,0.00,,OVC011,0.75,VWS V14.01,2013-08-05 16:45:00,
2013-08-05 11:51:00,69.4,67.3,29.83,WSW,246,6.0,8.0,93,0.00,,OVC011,0.75,VWS V14.01,2013-08-05 16:51:00,
2013-08-05 11:56:00,69.6,67.5,29.84,WNW,285,2.0,8.0,93,0.00,,OVC011,0.75,VWS V14.01,2013-08-05 16:56:00,
2013-08-05 12:01:00,69.7,67.6,29.83,WSW,252,8.0,8.0,93,0.00,,OVC011,0.75,VWS V14.01,2013-08-05 17:01:00,
2013-08-05 12:06:00,69.8,67.7,29.83,SW,221,5.0,8.0,93,0.00,,OVC011,0.75,VWS V14.01,2013-08-05 17:06:00,
2013-08-05 12:11:00,69.9,67.8,29.83,WSW,256,3.0,10.0,93,0.00,,OVC011,0.75,VWS V14.01,2013-08-05 17:11:00,
2013-08-05 12:16:00,70.0,67.9,29.82,WSW,250,4.0,10.0,93,0.00,,,0.75,VWS V14.01,2013-08-05 17:16:00,
2013-08-05 12:22:00,70.2,68.1,29.82,WSW,245,6.0,10.0,93,0.00,,,0.75,VWS V14.01,2013-08-05 17:22:00,
2013-08-05 12:27:00,70.3,67.9,29.82,WSW,252,8.0,10.0,92,0.00,,,0.75,VWS V14.01,2013-08-05 17:27:00,
2013-08-05 12:30:00,70.4,68.0,29.82,SW,233,5.0,10.0,92,0.00,,BKN060,0.75,VWS V14.01,2013-08-05 17:30:00,
2013-08-05 12:32:00,70.4,68.0,29.82,West,260,4.0,6.0,92,0.00,,,0.75,VWS V14.01,2013-08-05 17:32:00,
2013-08-05 12:37:00,70.6,68.2,29.82,WSW,242,4.0,9.0,92,0.00,,,0.75,VWS V14.01,2013-08-05 17:37:00,
2013-08-05 12:42:00,70.7,68.3,29.82,SW,221,3.0,9.0,92,0.00,,,0.75,VWS V14.01,2013-08-05 17:42:00,
2013-08-05 12:48:00,70.8,68.4,29.81,WSW,246,2.0,9.0,92,0.00,,,0.75,VWS V14.01,2013-08-05 17:48:00,
2013-08-05 12:53:00,70.9,68.5,29.82,SW,230,3.0,9.0,92,0.00,,,0.75,VWS V14.01,2013-08-05 17:53:00,
2013-08-05 12:57:00,71.0,68.6,29.82,WSW,253,2.0,9.0,92,0.00,,,0.75,VWS V14.01,2013-08-05 17:57:00,
2013-08-05 13:00:00,71.1,68.7,29.82,WSW,238,4.0,9.0,92,0.00,,BKN060,0.75,VWS V14.01,2013-08-05 18:00:00,
2013-08-05 13:02:00,71.1,68.7,29.82,West,278,2.0,6.0,92,0.00,,,0.75,VWS V14.01,2013-08-05 18:02:00,
2013-08-05 13:08:00,71.2,68.8,29.82,West,269,2.0,8.0,92,0.00,,,0.75,VWS V14.01,2013-08-05 18:08:00,
2013-08-05 13:13:00,71.3,68.5,29.82,West,266,4.0,8.0,91,0.00,,,0.75,VWS V14.01,2013-08-05 18:13:00,
2013-08-05 13:18:00,71.4,68.6,29.82,West,278,3.0,8.0,91,0.00,,,0.75,VWS V14.01,2013-08-05 18:18:00,
2013-08-05 13:23:00,71.6,68.8,29.81,West,281,2.0,8.0,91,0.00,,,0.75,VWS V14.01,2013-08-05 18:23:00,
2013-08-05 13:28:00,71.7,68.9,29.81,WSW,249,4.0,8.0,91,0.00,,,0.75,VWS V14.01,2013-08-05 18:28:00,
2013-08-05 13:30:00,71.7,68.9,29.81,West,269,4.0,8.0,91,0.00,,BKN060,0.75,VWS V14.01,2013-08-05 18:30:00,
2013-08-05 13:33:00,71.6,68.8,29.81,West,270,4.0,5.0,91,0.00,,,0.75,VWS V14.01,2013-08-05 18:33:00,
2013-08-05 13:39:00,71.7,68.9,29.81,West,262,2.0,5.0,91,0.00,,,0.75,VWS V14.01,2013-08-05 18:39:00,
2013-08-05 13:44:00,71.6,68.8,29.82,WNW,284,2.0,8.0,91,0.00,,,0.75,VWS V14.01,2013-08-05 18:44:00,
2013-08-05 13:49:00,71.6,68.8,29.81,West,281,3.0,8.0,91,0.00,,,0.75,VWS V14.01,2013-08-05 18:49:00,
2013-08-05 13:54:00,71.6,68.8,29.80,West,279,1.0,8.0,91,0.00,,OVC011,0.75,VWS V14.01,2013-08-05 18:54:00,
2013-08-05 13:59:00,71.7,69.3,29.80,WNW,285,0.0,8.0,92,0.00,,OVC011,0.75,VWS V14.01,2013-08-05 18:59:00,
2013-08-05 14:00:00,71.8,69.4,29.81,NW,307,0.0,8.0,92,0.00,,BKN060,0.75,VWS V14.01,2013-08-05 19:00:00,
2013-08-05 14:04:00,71.9,69.1,29.81,West,267,0.0,2.0,91,0.00,,OVC011,0.75,VWS V14.01,2013-08-05 19:04:00,
2013-08-05 14:09:00,72.0,69.2,29.81,West,269,0.0,3.0,91,0.00,,OVC011,0.75,VWS V14.01,2013-08-05 19:09:00,
2013-08-05 14:14:00,72.1,69.3,29.81,WSW,238,1.0,4.0,91,0.00,,OVC011,0.75,VWS V14.01,2013-08-05 19:14:00,
2013-08-05 14:19:00,72.1,69.3,29.81,West,262,3.0,6.0,91,0.00,,OVC011,0.75,VWS V14.01,2013-08-05 19:19:00,
2013-08-05 14:25:00,72.1,69.3,29.80,West,274,2.0,6.0,91,0.00,,OVC011,0.75,VWS V14.01,2013-08-05 19:25:00,
2013-08-05 14:30:00,72.2,69.4,29.80,WSW,245,0.0,6.0,91,0.00,,OVC011,0.75,VWS V14.01,2013-08-05 19:30:00,
2013-08-05 14:35:00,72.3,69.2,29.80,NNW,335,1.0,1.0,90,0.00,,OVC011,0.75,VWS V14.01,2013-08-05 19:35:00,
2013-08-05 14:40:00,72.7,69.9,29.80,North,6,0.0,1.0,91,0.00,,OVC011,0.75,VWS V14.01,2013-08-05 19:40:00,
2013-08-05 14:45:00,73.0,69.6,29.80,WSW,245,0.0,2.0,89,0.00,,OVC011,0.75,VWS V14.01,2013-08-05 19:45:00,
2013-08-05 14:50:00,73.7,70.6,29.80,West,281,1.0,2.0,90,0.00,,OVC011,0.75,VWS V14.01,2013-08-05 19:50:00,
2013-08-05 14:56:00,73.7,69.3,29.80,WSW,252,0.0,3.0,86,0.00,,OVC011,0.75,VWS V14.01,2013-08-05 19:56:00,
2013-08-05 15:00:00,73.7,69.6,29.80,WNW,294,0.0,3.0,87,0.00,,BKN060,0.75,VWS V14.01,2013-08-05 20:00:00,
2013-08-05 15:01:00,73.7,69.3,29.80,WNW,294,0.0,0.0,86,0.00,,OVC013,0.75,VWS V14.01,2013-08-05 20:01:00,
2013-08-05 15:06:00,73.7,69.6,29.80,SW,225,1.0,6.0,87,0.00,,OVC013,0.75,VWS V14.01,2013-08-05 20:06:00,
2013-08-05 15:11:00,73.6,69.5,29.79,West,279,2.0,6.0,87,0.00,,OVC013,0.75,VWS V14.01,2013-08-05 20:11:00,
2013-08-05 15:16:00,73.5,69.4,29.79,West,271,0.0,6.0,87,0.00,,OVC022,0.75,VWS V14.01,2013-08-05 20:16:00,
2013-08-05 15:21:00,73.4,69.0,29.80,West,279,3.0,6.0,86,0.00,,OVC022,0.75,VWS V14.01,2013-08-05 20:21:00,
2013-08-05 15:26:00,73.3,68.9,29.80,WNW,285,2.0,6.0,86,0.00,,OVC022,0.75,VWS V14.01,2013-08-05 20:26:00,
2013-08-05 15:30:00,73.6,69.8,29.79,WSW,252,3.0,6.0,88,0.00,,BKN060,0.75,VWS V14.01,2013-08-05 20:30:00,
2013-08-05 15:31:00,73.6,69.8,29.79,NW,311,3.0,3.0,88,0.00,,OVC022,0.75,VWS V14.01,2013-08-05 20:31:00,
2013-08-05 15:36:00,74.1,69.7,29.79,NW,316,0.0,3.0,86,0.00,,OVC022,0.75,VWS V14.01,2013-08-05 20:36:00,
2013-08-05 15:41:00,74.4,69.9,29.79,WSW,248,1.0,3.0,86,0.00,,OVC022,0.75,VWS V14.01,2013-08-05 20:41:00,
2013-08-05 15:46:00,74.6,69.4,29.79,WSW,258,3.0,4.0,84,0.00,,OVC022,0.75,VWS V14.01,2013-08-05 20:46:00,
2013-08-05 15:51:00,75.0,70.5,29.79,North,352,1.0,4.0,86,0.00,,OVC022,0.75,VWS V14.01,2013-08-05 20:51:00,
2013-08-05 15:56:00,75.8,70.6,29.79,North,359,1.0,4.0,84,0.00,,OVC022,0.75,VWS V14.01,2013-08-05 20:56:00,
2013-08-05 16:00:00,76.4,70.5,29.78,NNW,335,1.0,4.0,82,0.00,,BKN060,0.75,VWS V14.01,2013-08-05 21:00:00,
2013-08-05 16:01:00,76.4,70.9,29.78,WNW,285,0.0,1.0,83,0.00,,OVC026,0.75,VWS V14.01,2013-08-05 21:01:00,
2013-08-05 16:07:00,76.9,70.3,29.78,ESE,116,1.0,3.0,80,0.00,,OVC026,0.75,VWS V14.01,2013-08-05 21:07:00,
2013-08-05 16:12:00,77.4,71.5,29.78,West,272,3.0,4.0,82,0.00,,OVC026,0.75,VWS V14.01,2013-08-05 21:12:00,
2013-08-05 16:17:00,76.7,69.3,29.78,West,260,4.0,5.0,78,0.00,,OVC026,0.75,VWS V14.01,2013-08-05 21:17:00,
2013-08-05 16:22:00,77.2,70.9,29.78,North,8,1.0,5.0,81,0.00,,OVC026,0.75,VWS V14.01,2013-08-05 21:22:00,
2013-08-05 16:27:00,77.5,70.1,29.78,West,266,3.0,6.0,78,0.00,,OVC026,0.75,VWS V14.01,2013-08-05 21:27:00,
2013-08-05 16:32:00,77.6,70.2,29.78,WNW,283,0.0,1.0,78,0.00,,OVC026,0.75,VWS V14.01,2013-08-05 21:32:00,
2013-08-05 16:37:00,78.5,70.7,29.78,WNW,301,0.0,2.0,77,0.00,,OVC026,0.75,VWS V14.01,2013-08-05 21:37:00,
2013-08-05 16:42:00,78.8,70.6,29.78,West,269,2.0,2.0,76,0.00,,OVC026,0.75,VWS V14.01,2013-08-05 21:42:00,
2013-08-05 16:47:00,78.7,71.3,29.78,West,262,2.0,4.0,78,0.00,,FEW015,0.75,VWS V14.01,2013-08-05 21:47:00,
2013-08-05 16:52:00,78.6,70.8,29.78,North,354,1.0,4.0,77,0.00,,FEW015,0.75,VWS V14.01,2013-08-05 21:52:00,
2013-08-05 16:57:00,79.0,70.8,29.78,West,278,1.0,4.0,76,0.00,,CLR,0.75,VWS V14.01,2013-08-05 21:57:00,
2013-08-05 17:02:00,78.7,70.1,29.78,West,272,0.0,2.0,75,0.00,,CLR,0.75,VWS V14.01,2013-08-05 22:02:00,
2013-08-05 17:08:00,78.6,70.4,29.78,West,276,0.0,3.0,76,0.00,,CLR,0.75,VWS V14.01,2013-08-05 22:08:00,
2013-08-05 17:13:00,78.2,71.5,29.78,West,276,1.0,5.0,80,0.00,,CLR,0.75,VWS V14.01,2013-08-05 22:13:00,
2013-08-05 17:18:00,79.3,72.6,29.78,NW,323,0.0,5.0,80,0.00,,CLR,0.75,VWS V14.01,2013-08-05 22:18:00,
2013-08-05 17:23:00,79.8,71.2,29.78,West,270,5.0,6.0,75,0.00,,CLR,0.75,VWS V14.01,2013-08-05 22:23:00,
2013-08-05 17:28:00,79.4,70.8,29.78,West,263,0.0,7.0,75,0.00,,CLR,0.75,VWS V14.01,2013-08-05 22:28:00,
2013-08-05 17:33:00,79.8,71.2,29.78,NW,304,2.0,2.0,75,0.00,,CLR,0.75,VWS V14.01,2013-08-05 22:33:00,
2013-08-05 17:39:00,79.9,71.3,29.77,WNW,283,0.0,4.0,75,0.00,,CLR,0.75,VWS V14.01,2013-08-05 22:39:00,
2013-08-05 17:44:00,80.2,71.6,29.77,West,280,0.0,4.0,75,0.00,,CLR,0.75,VWS V14.01,2013-08-05 22:44:00,
2013-08-05 17:49:00,80.7,70.8,29.78,NNW,335,0.0,4.0,72,0.00,,CLR,0.75,VWS V14.01,2013-08-05 22:49:00,
2013-08-05 17:54:00,80.5,71.1,29.77,NW,304,0.0,4.0,73,0.00,,CLR,0.75,VWS V14.01,2013-08-05 22:54:00,
2013-08-05 17:59:00,80.3,70.9,29.77,WNW,302,0.0,4.0,73,0.00,,FEW027,0.75,VWS V14.01,2013-08-05 22:59:00,
2013-08-05 18:04:00,80.5,71.1,29.77,West,273,0.0,2.0,73,0.00,,FEW027,0.75,VWS V14.01,2013-08-05 23:04:00,
2013-08-05 18:09:00,79.9,70.1,29.77,West,274,3.0,5.0,72,0.00,,FEW027,0.75,VWS V14.01,2013-08-05 23:09:00,
2013-08-05 18:14:00,79.5,70.5,29.77,West,281,1.0,5.0,74,0.00,,FEW027,0.75,VWS V14.01,2013-08-05 23:14:00,
2013-08-05 18:19:00,80.1,70.7,29.77,West,264,3.0,5.0,73,0.00,,FEW027,0.75,VWS V14.01,2013-08-05 23:19:00,
2013-08-05 18:24:00,80.4,71.4,29.77,WSW,255,0.0,5.0,74,0.00,,FEW027,0.75,VWS V14.01,2013-08-05 23:24:00,
2013-08-05 18:29:00,81.0,70.7,29.77,North,351,1.0,5.0,71,0.00,,FEW027,0.75,VWS V14.01,2013-08-05 23:29:00,
2013-08-05 18:34:00,81.3,70.6,29.77,WSW,253,1.0,1.0,70,0.00,,FEW027,0.75,VWS V14.01,2013-08-05 23:34:00,
2013-08-05 18:39:00,81.4,71.1,29.77,NNW,335,0.0,1.0,71,0.00,,FEW027,0.75,VWS V14.01,2013-08-05 23:39:00,
2013-08-05 18:44:00,81.2,70.9,29.77,West,274,2.0,4.0,71,0.00,,FEW027,0.75,VWS V14.01,2013-08-05 23:44:00,
2013-08-05 18:50:00,80.5,71.1,29.76,WNW,283,1.0,4.0,73,0.00,,FEW027,0.75,VWS V14.01,2013-08-05 23:50:00,
2013-08-05 18:56:00,80.2,70.8,29.76,West,280,0.0,4.0,73,0.00,,FEW027,0.75,VWS V14.01,2013-08-05 23:56:00,
2013-08-05 19:00:00,79.9,70.1,29.76,West,274,2.0,4.0,72,0.00,,BKN060,0.75,VWS V14.01,2013-08-06 00:00:00,
2013-08-05 19:01:00,79.8,70.0,29.76,West,269,2.0,3.0,72,0.00,,CLR,0.75,VWS V14.01,2013-08-06 00:01:00,
2013-08-05 19:06:00,79.6,70.6,29.76,West,273,0.0,4.0,74,0.00,,CLR,0.75,VWS V14.01,2013-08-06 00:06:00,
2013-08-05 19:11:00,79.7,70.7,29.76,West,264,1.0,4.0,74,0.00,,CLR,0.75,VWS V14.01,2013-08-06 00:11:00,
2013-08-05 19:17:00,79.9,70.1,29.76,WSW,247,0.0,4.0,72,0.00,,CLR,0.75,VWS V14.01,2013-08-06 00:17:00,
2013-08-05 19:22:00,80.0,70.6,29.76,SW,226,0.0,4.0,73,0.00,,CLR,0.75,VWS V14.01,2013-08-06 00:22:00,
2013-08-05 19:27:00,79.7,69.9,29.76,West,277,2.0,4.0,72,0.00,,CLR,0.75,VWS V14.01,2013-08-06 00:27:00,
2013-08-05 19:30:00,79.1,69.7,29.76,West,272,0.0,4.0,73,0.00,,BKN060,0.75,VWS V14.01,2013-08-06 00:30:00,
2013-08-05 19:32:00,79.0,70.0,29.76,West,273,0.0,0.0,74,0.00,,CLR,0.75,VWS V14.01,2013-08-06 00:32:00,
2013-08-05 19:37:00,78.3,69.7,29.77,West,274,0.0,3.0,75,0.00,,CLR,0.75,VWS V14.01,2013-08-06 00:37:00,
2013-08-05 19:42:00,77.6,69.4,29.77,West,274,0.0,3.0,76,0.00,,CLR,0.75,VWS V14.01,2013-08-06 00:42:00,
2013-08-05 19:47:00,77.1,69.3,29.76,West,274,0.0,3.0,77,0.00,,CLR,0.75,VWS V14.01,2013-08-06 00:47:00,
2013-08-05 19:52:00,76.8,69.4,29.76,West,274,0.0,3.0,78,0.00,,CLR,0.75,VWS V14.01,2013-08-06 00:52:00,
2013-08-05 19:57:00,76.5,69.5,29.77,West,274,0.0,0.0,79,0.00,,CLR,0.75,VWS V14.01,2013-08-06 00:57:00,
2013-08-05 20:02:00,76.2,69.6,29.76,West,274,0.0,0.0,80,0.00,,BKN060,0.75,VWS V14.01,2013-08-06 01:02:00,
2013-08-05 20:07:00,76.1,69.5,29.76,West,274,0.0,0.0,80,0.00,,BKN060,0.75,VWS V14.01,2013-08-06 01:07:00,
2013-08-05 20:12:00,76.0,69.8,29.76,West,274,0.0,0.0,81,0.00,,BKN060,0.75,VWS V14.01,2013-08-06 01:12:00,
2013-08-05 20:17:00,75.7,69.8,29.77,West,274,0.0,0.0,82,0.00,,BKN060,0.75,VWS V14.01,2013-08-06 01:17:00,
2013-08-05 20:23:00,75.4,69.5,29.77,West,274,0.0,0.0,82,0.00,,BKN060,0.75,VWS V14.01,2013-08-06 01:23:00,
2013-08-05 20:28:00,75.0,69.5,29.77,West,274,0.0,0.0,83,0.00,,BKN060,0.75,VWS V14.01,2013-08-06 01:28:00,
2013-08-05 20:33:00,74.6,69.4,29.77,West,274,0.0,0.0,84,0.00,,BKN060,0.75,VWS V14.01,2013-08-06 01:33:00,
2013-08-05 20:38:00,74.2,69.4,29.77,West,274,0.0,0.0,85,0.00,,BKN060,0.75,VWS V14.01,2013-08-06 01:38:00,
2013-08-05 20:43:00,73.7,68.9,29.77,West,274,0.0,0.0,85,0.00,,BKN060,0.75,VWS V14.01,2013-08-06 01:43:00,
2013-08-05 20:48:00,73.3,69.2,29.77,West,274,0.0,0.0,87,0.00,,BKN060,0.75,VWS V14.01,2013-08-06 01:48:00,
2013-08-05 20:53:00,73.0,69.2,29.78,West,274,0.0,0.0,88,0.00,,BKN060,0.75,VWS V14.01,2013-08-06 01:53:00,
2013-08-05 20:58:00,72.8,69.4,29.78,West,274,0.0,0.0,89,0.00,,CLR,0.75,VWS V14.01,2013-08-06 01:58:00,
2013-08-05 21:03:00,72.7,69.3,29.78,West,274,0.0,0.0,89,0.00,,CLR,0.75,VWS V14.01,2013-08-06 02:03:00,
2013-08-05 21:08:00,72.4,69.0,29.78,West,274,0.0,0.0,89,0.00,,CLR,0.75,VWS V14.01,2013-08-06 02:08:00,
2013-08-05 21:13:00,72.2,69.1,29.78,West,274,0.0,0.0,90,0.00,,CLR,0.75,VWS V14.01,2013-08-06 02:13:00,
2013-08-05 21:18:00,72.0,68.9,29.78,West,274,0.0,0.0,90,0.00,,CLR,0.75,VWS V14.01,2013-08-06 02:18:00,
2013-08-05 21:23:00,71.9,69.1,29.78,West,274,0.0,0.0,91,0.00,,CLR,0.75,VWS V14.01,2013-08-06 02:23:00,
2013-08-05 21:29:00,71.9,69.1,29.78,West,274,0.0,0.0,91,0.00,,CLR,0.75,VWS V14.01,2013-08-06 02:29:00,
2013-08-05 21:34:00,72.0,69.2,29.78,West,274,0.0,0.0,91,0.00,,CLR,0.75,VWS V14.01,2013-08-06 02:34:00,
2013-08-05 21:39:00,71.9,68.8,29.78,West,274,0.0,0.0,90,0.00,,CLR,0.75,VWS V14.01,2013-08-06 02:39:00,
2013-08-05 21:44:00,71.6,68.8,29.78,West,274,0.0,0.0,91,0.00,,CLR,0.75,VWS V14.01,2013-08-06 02:44:00,
2013-08-05 21:49:00,71.5,68.7,29.78,West,274,0.0,0.0,91,0.00,,CLR,0.75,VWS V14.01,2013-08-06 02:49:00,
2013-08-05 21:54:00,71.6,68.8,29.78,West,274,0.0,0.0,91,0.00,,CLR,0.75,VWS V14.01,2013-08-06 02:54:00,
2013-08-05 21:59:00,71.6,69.2,29.78,West,274,0.0,0.0,92,0.00,,CLR,0.75,VWS V14.01,2013-08-06 02:59:00,
2013-08-05 22:04:00,71.4,68.6,29.78,West,274,0.0,0.0,91,0.00,,CLR,0.75,VWS V14.01,2013-08-06 03:04:00,
2013-08-05 22:10:00,71.0,68.6,29.78,West,274,0.0,0.0,92,0.00,,CLR,0.75,VWS V14.01,2013-08-06 03:10:00,
2013-08-05 22:15:00,70.7,68.6,29.78,West,274,0.0,0.0,93,0.00,,CLR,0.75,VWS V14.01,2013-08-06 03:15:00,
2013-08-05 22:20:00,70.5,68.7,29.78,West,274,0.0,0.0,94,0.00,,CLR,0.75,VWS V14.01,2013-08-06 03:20:00,
2013-08-05 22:25:00,70.4,68.6,29.78,West,274,0.0,0.0,94,0.00,,CLR,0.75,VWS V14.01,2013-08-06 03:25:00,
2013-08-05 22:30:00,70.3,68.5,29.77,West,274,0.0,0.0,94,0.00,,CLR,0.75,VWS V14.01,2013-08-06 03:30:00,
2013-08-05 22:35:00,70.1,68.3,29.78,West,274,0.0,0.0,94,0.00,,CLR,0.75,VWS V14.01,2013-08-06 03:35:00,
2013-08-05 22:40:00,69.9,68.4,29.78,West,274,0.0,0.0,95,0.00,,CLR,0.75,VWS V14.01,2013-08-06 03:40:00,
2013-08-05 22:45:00,69.8,68.3,29.78,West,274,0.0,0.0,95,0.00,,CLR,0.75,VWS V14.01,2013-08-06 03:45:00,
2013-08-05 22:50:00,70.0,68.8,29.78,West,280,0.0,1.0,96,0.00,,CLR,0.75,VWS V14.01,2013-08-06 03:50:00,
2013-08-05 22:56:00,70.1,68.6,29.78,West,279,0.0,1.0,95,0.00,,CLR,0.75,VWS V14.01,2013-08-06 03:56:00,
2013-08-05 23:01:00,70.0,68.5,29.78,West,279,0.0,0.0,95,0.00,,,0.75,VWS V14.01,2013-08-06 04:01:00,
2013-08-05 23:06:00,69.9,68.4,29.78,West,279,0.0,0.0,95,0.00,,,0.75,VWS V14.01,2013-08-06 04:06:00,
2013-08-05 23:11:00,69.9,68.4,29.78,West,280,0.0,0.0,95,0.00,,,0.75,VWS V14.01,2013-08-06 04:11:00,
2013-08-05 23:16:00,69.8,68.3,29.77,West,280,0.0,0.0,95,0.00,,CLR,0.75,VWS V14.01,2013-08-06 04:16:00,
2013-08-05 23:21:00,69.7,68.2,29.77,West,280,0.0,0.0,95,0.00,,CLR,0.75,VWS V14.01,2013-08-06 04:21:00,
2013-08-05 23:26:00,69.4,67.9,29.77,West,280,0.0,0.0,95,0.00,,CLR,0.75,VWS V14.01,2013-08-06 04:26:00,
2013-08-05 23:31:00,69.2,67.7,29.77,West,280,0.0,0.0,95,0.00,,CLR,0.75,VWS V14.01,2013-08-06 04:31:00,
2013-08-05 23:36:00,69.2,68.0,29.78,West,280,0.0,0.0,96,0.00,,CLR,0.75,VWS V14.01,2013-08-06 04:36:00,
2013-08-05 23:41:00,69.1,68.2,29.78,West,280,0.0,0.0,97,0.00,,CLR,0.75,VWS V14.01,2013-08-06 04:41:00,
2013-08-05 23:46:00,69.1,68.2,29.78,West,280,0.0,0.0,97,0.00,,CLR,0.75,VWS V14.01,2013-08-06 04:46:00,
2013-08-05 23:51:00,69.0,68.1,29.79,West,280,0.0,0.0,97,0.00,,CLR,0.75,VWS V14.01,2013-08-06 04:51:00,
2013-08-05 23:56:00,68.8,67.6,29.79,West,278,0.0,0.0,96,0.00,,CLR,0.75,VWS V14.01,2013-08-06 04:56:00,